Content
SEND FEEDBACK

Daily
Averages
Monthly
Summary
United States of America

EARTH CITY, MISSOURI


Home > North America > United States > Missouri
Elevation: 476 feet     Latitude: 38 46N     Longitude: 090 30W

WEATHER
 
SELECT A DAY
Number of Records: 208,273;   Date Range: 1/1/95 - 12/18/14
 
SHARE

PRINT THIS DATA

[ ← Previous Day ]
WEATHER ALMANAC - FEBRUARY 17, 2013
[ Next Day → ]
[ °C ]   °F
Weather ElementAverageHighLow
Temperature36.7 °F48 °F (3:51 pm)23 °F (5:51 am)
Dewpoint19.7 °F30 °F (8:51 pm)12.9 °F (1:51 am)
Humidity52.2 %75 % (6:51 am)33 % (2:51 pm)
Barometer30.12 in30.22 in (5:51 am)29.94 in (11:51 pm)
Wind Speed11.1 mph17.3 mph (2:51 pm)
Wind Gust25.3 mph (6:51 pm)
Weather ElementAverage
Visibility10 mi
Wind DirectionESE (111.4 °)

Weather ElementTotal
Precipitation---
Heating Degree Days29.5 (Base 65)
Averaged from 22 records on February 17, 2013
WEATHER CONDITIONS BREAKOUT
WIND DIRECTION BREAKOUT
WEATHER BY HOUR - FEBRUARY 17, 2013
[ °C ]   °F
Local TimeTemperatureDewpointHumidityBarometerVisibilityWind DirectionWind SpeedGust SpeedPrecipitationEventsConditions
1:51 AM24.1 °F12.9 °F62 %30.20 in10.0 miNE (50°)3.5 mphClear
2:51 AM24.1 °F15.1 °F69 %30.20 in10.0 miCalmMostly Cloudy
3:51 AM25.0 °F16.0 °F69 %30.20 in10.0 miCalmMostly Cloudy
4:51 AM25.0 °F12.9 °F60 %30.20 in10.0 miEast (100°)4.6 mphMostly Cloudy
5:51 AM23.0 °F14.0 °F68 %30.22 in10.0 miEast (90°)4.6 mphMostly Cloudy
6:51 AM25.0 °F18.0 °F75 %30.22 in10.0 miEast (100°)4.6 mphMostly Cloudy
7:51 AM27.0 °F17.1 °F66 %30.22 in10.0 miESE (110°)10.4 mphMostly Cloudy
8:51 AM30.0 °F16.0 °F56 %30.22 in10.0 miESE (120°)12.7 mphMostly Cloudy
9:51 AM34.0 °F15.1 °F46 %30.22 in10.0 miESE (120°)12.7 mphMostly Cloudy
10:51 AM37.9 °F15.1 °F39 %30.20 in10.0 miSE (140°)12.7 mphMostly Cloudy
11:51 AM41.0 °F16.0 °F36 %30.17 in10.0 miESE (120°)13.8 mphMostly Cloudy
12:51 PM44.1 °F17.1 °F34 %30.13 in10.0 miSE (130°)16.1 mph24.2 mphScattered Clouds
1:51 PM45.0 °F18.0 °F34 %30.10 in10.0 miSE (130°)15.0 mph21.9 mphMostly Cloudy
2:51 PM46.9 °F19.0 °F33 %30.07 in10.0 miSE (140°)17.3 mph23.0 mphScattered Clouds
3:51 PM48.0 °F19.9 °F33 %30.05 in10.0 miSE (130°)17.3 mph24.2 mphPartly Cloudy
4:51 PM46.9 °F21.9 °F37 %30.02 in10.0 miSE (130°)15.0 mph24.2 mphScattered Clouds
5:51 PM46.0 °F23.0 °F40 %30.01 in10.0 miSE (140°)12.7 mphMostly Cloudy
6:51 PM44.1 °F28.0 °F53 %30.02 in10.0 miSE (140°)15.0 mph25.3 mphMostly Cloudy
7:51 PM44.1 °F28.9 °F55 %30.01 in10.0 miSSE (150°)16.1 mphMostly Cloudy
8:51 PM43.0 °F30.0 °F60 %30.00 in10.0 miSSE (150°)15.0 mph23.0 mphMostly Cloudy
9:51 PM42.1 °F30.0 °F62 %29.98 in10.0 miSE (130°)13.8 mphMostly Cloudy
11:51 PM41.0 °F28.9 °F62 %29.94 in10.0 miSE (130°)10.4 mphMostly Cloudy
Hourly data recorded from KSTL, located miles away from Earth City, Missouri







STORIES FROM OUR PARTNERS